Tiempo atmosférico en la estación meteorológica de Barcelona, Barcelona (25 m.)



Fecha
DESCASC
Temp. máxima en grados centígrados (hora)
DESCASC
Temp. mínima en grados centígrados (hora)
DESCASC
Temp. media en grados centígrados
DESCASC
Racha de viento máxima en m/sg (hora)
DESCASC
Velocidad máxima media en intervalos de 10 minutos(hora)
DESCASC
Precipitaciones diarias en mm
DESCASC
Precipitaciones de 00:00 a 06:00 en mm
DESCASC
Precipitaciones de 06:00 a 12:00 en mm
DESCASC
Precipitaciones de 12:00 a 18:00 en mm
DESCASC
Precipitaciones de 18:00 a 24:00 en mm
DESCASC
05-04-2020 16.1 (12:40) 8.3 (07:10) 12.2 6.67 (18:40) 5.83 (18:40) 0 0 0 0 0
04-04-2020 16.2 (13:30) 8.7 (07:30) 12.5 7.78 (16:40) 6.39 (15:50) 0 0 0 0 0
03-04-2020 16 (12:50) 8.1 (07:10) 12.1 11.39 (17:40) 7.22 (15:30) 0 0 0 0 0
02-04-2020 13.8 (16:50) 10 (00:00) 11.9 15 (14:50) 12.78 (14:20) 0 0 0 0 0
01-04-2020 12.7 (01:20) 9.6 (00:00) 11.2 18.33 (16:20) 15 (14:50) 6.1 0 0 1.1 5
31-03-2020 12.5 (23:59) 8.5 (00:00) 10.5 14.72 (19:20) 12.22 (17:50) 0.7 0.1 0 0.5 0.1
30-03-2020 13.7 (00:50) 7.8 (00:00) 10.8 15 (03:30) 12.78 (03:30) 5.7 0 1.7 3.8 0.2
29-03-2020 18.3 (12:20) 9.6 (00:00) 13.9 7.5 (13:50) 6.11 (14:00) 0 0 0 0 0
28-03-2020 16.5 (12:20) 10.2 (00:00) 13.3 6.39 (17:00) 5.28 (16:30) 0 0 0 0 0
27-03-2020 15.5 (13:20) 5.9 (00:00) 10.7 8.33 (18:30) 5.56 (18:40) 0 0 0 0 0
26-03-2020 11.1 (10:10) 5.9 (00:00) 8.5 16.39 (16:10) 13.33 (15:00) 0 0 0 0 0
25-03-2020 13.6 (13:40) 7.9 (00:00) 10.8 12.78 (07:30) 6.67 (12:10) 1.9 0 0 1.9 0
24-03-2020 13.7 (13:50) 9.7 (00:00) 11.7 15.56 (19:00) 12.5 (18:40) 0 0 0 0 0
23-03-2020 15.1 (14:40) 11.6 (00:00) 13.4 14.44 (21:10) 12.22 (21:10) 19.9 4.8 15.1 0 0
22-03-2020 15.1 (12:30) 11 (07:00) 13.1 10.28 (19:50) 8.61 (19:50) 0 0 0 0 0
21-03-2020 16.3 (15:30) 9 (00:00) 12.6 7.78 (13:50) 6.67 (13:50) 0 0 0 0 0
20-03-2020 15.7 (16:00) 8.7 (00:00) 12.2 8.33 (14:50) 6.67 (15:00) 0 0 0 0 0
19-03-2020 15.9 (13:30) 8.8 (00:00) 12.3 5.56 (20:00) 3.61 (13:40) 0 0 0 0 0
18-03-2020 17.1 (14:50) 11.4 (00:00) 14.3 5.56 (10:30) 4.44 (11:10) 0 0 0 0 0
17-03-2020 14.9 (14:00) 12.8 (00:00) 13.8 15 (02:00) 11.11 (02:00) 0.1 0.1 0 0 0
16-03-2020 14 (23:30) 12.6 (00:00) 13.3 17.5 (20:30) 14.72 (12:10) 3.3 0 0 3.3 0
15-03-2020 15.7 (11:40) 10.6 (00:00) 13.2 8.89 (13:20) 7.5 (13:30) 0 0 0 0 0
14-03-2020 17.9 (14:40) 12.4 (00:00) 15.1 5.56 (11:30) 5 (11:30) 0 0 0 0 0
13-03-2020 17.4 (14:40) 11.2 (05:50) 14.3 8.89 (13:50) 7.22 (15:40) 0 0 0 0 0
12-03-2020 17 (10:50) 11 (00:00) 14 7.5 (11:20) 5.83 (11:40) 0 0 0 0 0
11-03-2020 16.4 (12:30) 9.8 (00:00) 13.1 6.39 (02:40) 3.89 (10:40) 0 0 0 0 0
10-03-2020 15.8 (15:00) 10.1 (00:00) 13 10 (15:40) 7.22 (12:10) 0 0 0 0 0

Gráficas

Temp. máximas Temp. mínimas Temp. medias Precipitaciones Rachas de viento máximas Velocidades máximas media en intervalos de 10 minutos

Datos horarios

Fecha y hora oficial Temperatura (ºC) Velocidad del viento (km/h) Dirección del viento Racha (km/h) Dirección de racha Precipitación (mm) Presión (hPa) Tendencia (hPa) Humedad (%)
2020-04-08 23:00:00 14.4 2 Sudeste 7 Sudeste 0 -- -- 91
2020-04-08 22:00:00 14.7 4 Sur 8 Sur 0 -- -- 91
2020-04-08 21:00:00 14.9 6 Sur 9 Sur 0 -- -- 91
2020-04-08 20:00:00 15.2 6 Sur 11 Sur 0 -- -- 90
2020-04-08 19:00:00 15.9 8 Sur 14 Sudeste 0 -- -- 87
2020-04-08 18:00:00 16.9 10 Sur 15 Sudeste 0 -- -- 84
2020-04-08 17:00:00 16.6 10 Sur 17 Sur 0 -- -- 84
2020-04-08 16:00:00 17.4 10 Sur 17 Sudeste 0 -- -- 70
2020-04-08 15:00:00 17.4 10 Sur 17 Sur 0 -- -- 70
2020-04-08 14:00:00 17.4 10 Sur 15 Sur 0 -- -- 70
2020-04-08 13:00:00 17.9 8 Sur 14 Sudeste 0 -- -- 64
2020-04-08 12:00:00 17.6 3 Sudeste 11 Sudeste 0 -- -- 69
2020-04-08 11:00:00 17.5 0 Calma 10 Sudeste 0 -- -- 65
2020-04-08 10:00:00 16.7 3 Este 8 Este 0 -- -- 68
2020-04-08 09:00:00 15.7 0 Calma 3 Sudeste 0 -- -- 78
2020-04-08 08:00:00 13.2 0 Calma 4 Nordeste 0 -- -- 80
2020-04-08 07:00:00 13.4 0 Calma 6 Norte 0 -- -- 79
2020-04-08 06:00:00 13.5 0 Calma 0 Calma 0 -- -- 82
2020-04-08 05:00:00 13.8 0 Calma 8 Este 0 -- -- 82
2020-04-08 04:00:00 14 5 Oeste 11 Oeste 0 -- -- 81
2020-04-08 03:00:00 14.2 0 Calma 10 Oeste 0 -- -- 91
2020-04-08 02:00:00 14.1 8 Sudoeste 10 Sudoeste 0 -- -- 90
2020-04-08 01:00:00 14.1 6 Sudoeste 11 Sudoeste 0 -- -- 90
2020-04-08 00:00:00 14.1 8 Sur 11 Sudoeste 0 -- -- 91
2020-04-07 23:00:00 14.6 4 Sudoeste 14 Sudoeste 0 -- -- 88
2020-04-07 22:00:00 14.8 6 Sudoeste 16 Sudoeste 0 -- -- 85
2020-04-07 21:00:00 15.3 9 Sudoeste 18 Sudoeste 0 -- -- 71
2020-04-07 20:00:00 14.7 15 Sudoeste 19 Sudoeste 0 -- -- 76
2020-04-07 19:00:00 15.4 10 Sudoeste 15 Sur 0 -- -- 80
2020-04-07 18:00:00 15.8 11 Sur 15 Sudoeste 0 -- -- 86
2020-04-07 17:00:00 16.6 9 Sur 15 Sur 0 -- -- 87
2020-04-07 16:00:00 17.3 9 Sur 17 Sudeste 0 -- -- 86
2020-04-07 15:00:00 17.2 12 Sudeste 14 Sudeste 0 -- -- 83
2020-04-07 14:00:00 17.9 9 Sudeste 13 Sudeste 0 -- -- 83
2020-04-07 13:00:00 16.9 12 Sudeste 14 Sudeste 0 -- -- 84
2020-04-07 12:00:00 16.6 8 Sudeste 12 Sudeste 0 -- -- 85
2020-04-07 11:00:00 15.4 6 Sudeste 8 Este 0 -- -- 85
2020-04-07 10:00:00 14.3 6 Este 8 Este 0 -- -- 85
2020-04-07 09:00:00 12.6 4 Norte 8 Norte 0 -- -- 88
2020-04-07 08:00:00 12.2 0 Calma 8 Norte 0 -- -- 88
2020-04-07 07:00:00 11.9 4 Norte 8 Norte 0 -- -- 88
2020-04-07 06:00:00 11.9 6 Norte 9 Norte 0 -- -- 88
2020-04-07 05:00:00 12 7 Norte 9 Norte 0 -- -- 87
2020-04-07 04:00:00 12.3 0 Calma 3 Nordeste 0 -- -- 85
2020-04-07 03:00:00 12.7 0 Calma -- -- 0 -- -- 84
2020-04-07 02:00:00 12.9 0 Calma 4 Oeste 0 -- -- 85
2020-04-07 01:00:00 13.3 5 Oeste 11 Oeste 0 -- -- 87
2020-04-07 00:00:00 13.4 5 Sudoeste 9 Sudoeste 0 -- -- 90
2020-04-06 23:00:00 13.6 6 Sudoeste 14 Oeste 0 -- -- 89
2020-04-06 22:00:00 14 9 Oeste 16 Oeste 0 -- -- 85
2020-04-06 21:00:00 13.8 10 Sudoeste 15 Sudoeste 0 -- -- 90
2020-04-06 20:00:00 14.3 12 Sudoeste 16 Sur 0 -- -- 88
2020-04-06 19:00:00 14.7 12 Sur 14 Sur 0 -- -- 91
2020-04-06 18:00:00 15.9 12 Sur 19 Sudeste 0 -- -- 88
2020-04-06 17:00:00 16.6 13 Sudeste 16 Sudeste 0 -- -- 87
2020-04-06 16:00:00 17.2 13 Sudeste 15 Sudeste 0 -- -- 84
2020-04-06 15:00:00 17.3 12 Sudeste 15 Sudeste 0 -- -- 81
2020-04-06 14:00:00 17 13 Sudeste 14 Sudeste 0 -- -- 78
2020-04-06 13:00:00 16.9 8 Sudeste 13 Sudeste 0 -- -- 75
2020-04-06 12:00:00 16.8 8 Sudeste 12 Sudeste 0 -- -- 70
2020-04-06 11:00:00 15.6 7 Este 9 Nordeste 0 -- -- 67
2020-04-06 10:00:00 13.3 4 Norte 11 Norte 0 -- -- 69
2020-04-06 09:00:00 11.2 6 Norte 13 Norte 0 -- -- 79
2020-04-06 08:00:00 10.3 10 Norte 14 Norte 0 -- -- 81
2020-04-06 07:00:00 10 9 Norte 13 Norte 0 -- -- 81
2020-04-06 06:00:00 9.8 10 Norte 13 Norte 0 -- -- 80
2020-04-06 05:00:00 10.4 10 Norte 13 Norte 0 -- -- 81
2020-04-06 04:00:00 10.3 9 Norte 13 Norte 0 -- -- 84
2020-04-06 03:00:00 10.6 8 Norte 12 Norte 0 -- -- 84
2020-04-06 02:00:00 11.1 8 Norte 10 Norte 0 -- -- 84
2020-04-06 01:00:00 12.1 3 Oeste 8 Oeste 0 -- -- 89
2020-04-06 00:00:00 -- -- -- -- -- -- -- -- --
2020-04-05 23:00:00 12.6 4 Oeste 11 Sudoeste 0 -- -- 89
2020-04-05 22:00:00 13 6 Oeste 15 Sudoeste 0 -- -- 86
2020-04-05 21:00:00 13.5 8 Sudoeste 17 Sur 0 -- -- 79
2020-04-05 20:00:00 14.3 9 Sudoeste 21 Sudoeste 0 -- -- 69
2020-04-05 19:00:00 14.4 17 Sudoeste 24 Sudoeste 0 -- -- 82
2020-04-05 18:00:00 14.4 18 Sudoeste 21 Sudoeste 0 -- -- 83
2020-04-05 17:00:00 14.7 15 Sudoeste 19 Sur 0 -- -- 82
2020-04-05 16:00:00 15 15 Sudoeste 20 Sur 0 -- -- 81
2020-04-05 15:00:00 14.5 15 Sur 21 Sudoeste 0 -- -- 80
2020-04-05 14:00:00 15 14 Sur 19 Sur 0 -- -- 81
2020-04-05 13:00:00 15.6 11 Sur 16 Sur 0 -- -- 78
2020-04-05 12:00:00 15.2 7 Sudeste 12 Sur 0 -- -- 73
2020-04-05 11:00:00 14.9 2 Sudeste 9 Sudeste 0 -- -- 70
2020-04-05 10:00:00 13.5 3 Este 9 Sudeste 0 -- -- 77
2020-04-05 09:00:00 11.7 3 Norte 9 Norte 0 -- -- 78
2020-04-05 08:00:00 9.1 9 Norte 14 Norte 0 -- -- 84
2020-04-05 07:00:00 8.4 9 Norte 12 Norte 0 -- -- 91
2020-04-05 06:00:00 8.9 5 Norte 13 Norte 0 -- -- 91
2020-04-05 05:00:00 9.7 6 Noroeste 13 Norte 0 -- -- 91
2020-04-05 04:00:00 10.4 7 Norte 12 Norte 0 -- -- 89
2020-04-05 03:00:00 10.7 6 Norte 11 Norte 0 -- -- 86
2020-04-05 02:00:00 11.2 3 Norte 10 Oeste 0 -- -- 90
2020-04-05 01:00:00 12 3 Oeste 10 Oeste 0 -- -- 91
2020-04-05 00:00:00 12.4 3 Oeste 12 Oeste 0 -- -- 92
2020-04-04 23:00:00 12.6 8 Oeste 13 Sudoeste 0 -- -- 91
2020-04-04 22:00:00 13 6 Oeste 15 Oeste 0 -- -- 91
2020-04-04 21:00:00 13.3 9 Sudoeste 21 Sudoeste 0 -- -- 89
2020-04-04 20:00:00 14.2 16 Sudoeste 26 Sudoeste 0 -- -- 81
2020-04-04 19:00:00 15.1 15 Sudoeste 25 Sudoeste 0 -- -- 74
2020-04-04 18:00:00 14.8 20 Sudoeste 28 Sudoeste 0 -- -- 78
2020-04-04 17:00:00 15 22 Sudoeste 28 Sudoeste 0 -- -- 73
2020-04-04 16:00:00 14.5 23 Sudoeste 28 Sudoeste 0 -- -- 86
2020-04-04 15:00:00 14.1 20 Sudoeste 26 Sudoeste 0 -- -- 88
2020-04-04 14:00:00 15.5 6 Sur 14 Sudeste 0 -- -- 82
2020-04-04 13:00:00 15.7 10 Sudeste 16 Este 0 -- -- 80
2020-04-04 12:00:00 14.5 13 Este 17 Este 0 -- -- 86
2020-04-04 11:00:00 13.3 13 Este 18 Este 0 -- -- 88
2020-04-04 10:00:00 13 5 Norte 10 Nordeste 0 -- -- 78
2020-04-04 09:00:00 11.5 4 Este 9 Norte 0 -- -- 85
2020-04-04 08:00:00 9 8 Norte 13 Norte 0 -- -- 88
2020-04-04 07:00:00 9.1 4 Norte 11 Norte 0 -- -- 88
2020-04-04 06:00:00 9.1 4 Norte 10 Norte 0 -- -- 88
2020-04-04 05:00:00 9.3 8 Norte 11 Norte 0 -- -- 86
2020-04-04 04:00:00 10.2 8 Norte 12 Norte 0 -- -- 83
2020-04-04 03:00:00 10.7 6 Norte 11 Norte 0 -- -- 80
2020-04-04 02:00:00 10.8 8 Norte 10 Norte 0 -- -- 81
2020-04-04 01:00:00 11.9 5 Oeste 8 Oeste 0 -- -- 86
2020-04-04 00:00:00 12.1 0 Calma -- -- 0 -- -- 86
2020-04-03 23:00:00 12.3 0 Calma 10 Sudoeste 0 -- -- 81
2020-04-03 22:00:00 12.9 6 Sudoeste 17 Sudoeste 0 -- -- 76
2020-04-03 21:00:00 13.1 10 Sudoeste 30 Sudoeste 0 -- -- 78
2020-04-03 20:00:00 13.6 15 Sudoeste 33 Sudoeste 0 -- -- 68
2020-04-03 19:00:00 14.3 21 Sudoeste 39 Sudoeste 0 -- -- 63
2020-04-03 18:00:00 14.6 22 Sudoeste 41 Sudoeste 0 -- -- 60
2020-04-03 17:00:00 14.7 21 Sudoeste 33 Sudoeste 0 -- -- 57
2020-04-03 16:00:00 14.4 22 Sudoeste 32 Sudoeste 0 -- -- 60
2020-04-03 15:00:00 14.2 22 Sudoeste 30 Sudoeste 0 -- -- 62
2020-04-03 14:00:00 13.8 22 Sudoeste 31 Sudoeste 0 -- -- 68
2020-04-03 13:00:00 14.7 19 Sudoeste 27 Sudoeste 0 -- -- 72
2020-04-03 12:00:00 15.2 10 Sur 17 Sur 0 -- -- 70
2020-04-03 11:00:00 14.1 8 Norte 15 Nordeste 0 -- -- 72
2020-04-03 10:00:00 12.3 6 Norte 14 Norte 0 -- -- 80
2020-04-03 09:00:00 9.7 9 Norte 15 Nordeste 0 -- -- 86
2020-04-03 08:00:00 8.4 7 Norte 12 Norte 0 -- -- 91
2020-04-03 07:00:00 8.2 7 Norte 11 Norte 0 -- -- 91
2020-04-03 06:00:00 9.2 4 Norte 10 Norte 0 -- -- 90
2020-04-03 05:00:00 9.1 8 Norte 15 Norte 0 -- -- 90
2020-04-03 04:00:00 9.5 4 Nordeste 8 Nordeste 0 -- -- 87
2020-04-03 03:00:00 10 5 Norte 12 Norte 0 -- -- 85
2020-04-03 02:00:00 10.4 7 Norte 10 Norte 0 -- -- 83
2020-04-03 01:00:00 10.9 5 Norte 13 Norte 0 -- -- 82
2020-04-03 00:00:00 11.3 9 Norte 20 Este 0 -- -- 82
2020-04-02 23:00:00 11.4 15 Este 31 Este 0 -- -- 85
2020-04-02 22:00:00 11.7 24 Este 34 Este 0 -- -- 84
2020-04-02 21:00:00 11.9 28 Este 36 Este 0 -- -- 85
2020-04-02 20:00:00 12.1 31 Este 41 Este 0 -- -- 81
2020-04-02 19:00:00 12.7 35 Este 46 Este 0 -- -- 80
2020-04-02 18:00:00 12.6 38 Este 48 Este 0 -- -- 79
2020-04-02 17:00:00 13.1 36 Este 45 Este 0 -- -- 77
2020-04-02 16:00:00 12.9 39 Este 52 Este 0 -- -- 76
2020-04-02 15:00:00 12.2 44 Este 54 Este 0 -- -- 81
2020-04-02 14:00:00 12.2 43 Este 51 Este 0 -- -- 79
2020-04-02 13:00:00 11.7 37 Este 44 Este 0 -- -- 80
2020-04-02 12:00:00 12.2 25 Nordeste 37 Este 0 -- -- 72
2020-04-02 11:00:00 11.4 13 Nordeste 37 Nordeste 0 -- -- 79
2020-04-02 10:00:00 10.9 24 Nordeste 36 Nordeste 0 -- -- 82
2020-04-02 09:00:00 10.3 15 Nordeste 30 Nordeste 0 -- -- 84
2020-04-02 08:00:00 10.2 18 Nordeste 29 Nordeste 0 -- -- 86
2020-04-02 07:00:00 10.3 17 Nordeste 30 Nordeste 0 -- -- 86
2020-04-02 06:00:00 10.3 14 Nordeste 32 Este 0 -- -- 86
2020-04-02 05:00:00 10.1 10 Nordeste 27 Nordeste 0 -- -- 87
2020-04-02 04:00:00 10.2 15 Nordeste 32 Este 0 -- -- 87
2020-04-02 03:00:00 10.1 17 Nordeste 33 Nordeste 0 -- -- 88
2020-04-02 02:00:00 10.3 25 Nordeste 37 Nordeste 0 -- -- 88
2020-04-02 01:00:00 10.3 21 Nordeste 38 Este 0 -- -- 88
2020-04-02 00:00:00 10.3 25 Nordeste 47 Este 0 -- -- 90
2020-04-01 23:00:00 10.6 37 Este 53 Este 0 -- -- 92
2020-04-01 22:00:00 10.1 46 Este 59 Este 0 -- -- 92
2020-04-01 21:00:00 9.9 39 Este 58 Este 0.1 -- -- 93
2020-04-01 20:00:00 9.7 31 Nordeste 64 Este 1.6 -- -- 94
2020-04-01 19:00:00 10.2 46 Este 63 Este 3.3 -- -- 93
2020-04-01 18:00:00 10.4 44 Este 63 Este 0.7 -- -- 93
2020-04-01 17:00:00 10.3 46 Este 66 Este 0.3 -- -- 93
2020-04-01 16:00:00 10.7 50 Este 62 Este 0.1 -- -- 93
2020-04-01 15:00:00 11.1 50 Este 64 Este 0 -- -- 92
2020-04-01 14:00:00 11.4 47 Este 57 Este 0 -- -- 92
2020-04-01 13:00:00 11.2 37 Este 55 Este 0 -- -- 92
2020-04-01 12:00:00 10.9 43 Este 57 Este 0 -- -- 92
2020-04-01 11:00:00 11.3 44 Este 55 Este 0 -- -- 90
2020-04-01 10:00:00 11.1 37 Este 56 Este 0 -- -- 91
2020-04-01 09:00:00 11.1 37 Este 60 Este 0 -- -- 91
2020-04-01 08:00:00 11.4 45 Este 59 Este 0 -- -- 92
2020-04-01 07:00:00 11.7 46 Este 59 Este 0 -- -- 93
2020-04-01 06:00:00 11.5 43 Este 51 Este 0 -- -- 93
2020-04-01 05:00:00 11.7 41 Este 51 Este 0 -- -- 92
2020-04-01 04:00:00 12 32 Este 45 Este 0 -- -- 92
2020-04-01 03:00:00 12.1 32 Este 44 Este 0 -- -- 92
2020-04-01 02:00:00 12.3 34 Este 46 Este 0 -- -- 92
2020-04-01 01:00:00 12.5 26 Este 37 Este 0 -- -- 90
2020-04-01 00:00:00 12.4 24 Nordeste 35 Nordeste 0 -- -- 86
2020-03-31 23:00:00 12.2 23 Este 38 Este 0 -- -- 87
2020-03-31 22:00:00 12.1 25 Nordeste 45 Este 0 -- -- 85
2020-03-31 21:00:00 11.6 29 Nordeste 46 Este 0 -- -- 89
2020-03-31 20:00:00 11.5 35 Este 53 Este 0 -- -- 87
2020-03-31 19:00:00 11.8 39 Este 53 Este 0.1 -- -- 87
2020-03-31 18:00:00 11.8 40 Este 51 Este 0.3 -- -- 88
2020-03-31 17:00:00 11.7 36 Este 44 Este 0.1 -- -- 90
2020-03-31 16:00:00 11.6 34 Este 46 Este 0.1 -- -- 87
2020-03-31 15:00:00 11.5 39 Este 48 Este 0 -- -- 84
2020-03-31 14:00:00 11.6 36 Este 45 Este 0 -- -- 81
2020-03-31 13:00:00 11.9 37 Este 44 Este 0 -- -- 79
2020-03-31 12:00:00 11.9 32 Este 43 Este 0 -- -- 78
2020-03-31 11:00:00 11.1 35 Este 47 Este 0 -- -- 78
2020-03-31 10:00:00 10.6 38 Este 48 Este 0 -- -- 78
2020-03-31 09:00:00 10.2 31 Este 47 Este 0 -- -- 80
2020-03-31 08:00:00 10.4 36 Este 47 Este 0 -- -- 80
2020-03-31 07:00:00 10.3 27 Este 47 Este 0 -- -- 77
2020-03-31 06:00:00 10.3 37 Este 48 Este 0 -- -- 77
2020-03-31 05:00:00 10.5 38 Este 45 Este 0.1 -- -- 75
2020-03-31 04:00:00 10 23 Este 30 Este 0 -- -- 82
2020-03-31 03:00:00 9.1 9 Nordeste 16 Norte 0 -- -- 88
2020-03-31 02:00:00 8.7 8 Nordeste 15 Nordeste 0 -- -- 90
2020-03-31 01:00:00 8.7 8 Norte 14 Norte 0 -- -- 89
2020-03-31 00:00:00 8.7 6 Norte 15 Norte 0 -- -- 89
2020-03-30 23:00:00 8.6 5 Norte 14 Nordeste 0 -- -- 88
2020-03-30 22:00:00 8.3 6 Norte 14 Nordeste 0 -- -- 88
2020-03-30 21:00:00 8.2 8 Norte 16 Norte 0 -- -- 88
2020-03-30 20:00:00 8 4 Norte 14 Norte 0 -- -- 90
2020-03-30 19:00:00 8 6 Norte 20 Norte 0.2 -- -- 89
2020-03-30 18:00:00 8.8 3 Nordeste 18 Norte 0.1 -- -- 88
2020-03-30 17:00:00 8.4 8 Nordeste 16 Norte 0 -- -- 91
2020-03-30 16:00:00 8.4 7 Norte 22 Nordeste 0.1 -- -- 92
2020-03-30 15:00:00 8.7 10 Norte 24 Noroeste 0.5 -- -- 91
2020-03-30 14:00:00 9 11 Norte 19 Norte 2.9 -- -- 90
2020-03-30 13:00:00 10.6 5 Sudeste 12 Sudeste 0.2 -- -- 92
2020-03-30 12:00:00 11 5 Sur 8 Sudoeste 0 -- -- 92
2020-03-30 11:00:00 10.4 0 Calma 23 Sudeste 0.3 -- -- 92
2020-03-30 10:00:00 10.4 20 Sudeste 33 Este 1.4 -- -- 92
2020-03-30 09:00:00 10.6 31 Este 38 Este 0 -- -- 90
2020-03-30 08:00:00 10.9 32 Este 42 Este 0 -- -- 89
2020-03-30 07:00:00 11.2 34 Este 45 Este 0 -- -- 88
2020-03-30 06:00:00 11 33 Este 49 Este 0 -- -- 88
2020-03-30 05:00:00 11.3 42 Este 52 Este 0 -- -- 89
2020-03-30 04:00:00 12 45 Este 54 Este 0 -- -- 88
2020-03-30 03:00:00 12.8 41 Este 49 Este 0 -- -- 89
2020-03-30 02:00:00 13.2 27 Este 32 Este 0 -- -- 92
2020-03-30 01:00:00 13.6 6 Este 8 Sudeste 0 -- -- 89
2020-03-30 00:00:00 13.5 4 Este 8 Sudeste 0 -- -- 88
2020-03-29 23:00:00 13.7 3 Sur 6 Sur 0 -- -- 88
2020-03-29 22:00:00 13.7 0 Calma 8 Este 0 -- -- 89
2020-03-29 21:00:00 13.8 5 Sudeste 8 Sudeste 0 -- -- 87
2020-03-29 20:00:00 14.4 4 Sudeste 9 Sudeste 0 -- -- 85
2020-03-29 19:00:00 14.1 9 Este 19 Este 0 -- -- 86
2020-03-29 18:00:00 15 17 Este 19 Este 0 -- -- 78
2020-03-29 17:00:00 16.1 16 Este 19 Sudeste 0 -- -- 78
2020-03-29 16:00:00 15.6 12 Sur 22 Sudoeste 0 -- -- 81
2020-03-29 15:00:00 15 18 Sudoeste 26 Sudoeste 0 -- -- 82
2020-03-29 14:00:00 15 22 Sudoeste 27 Sudoeste 0 -- -- 81
2020-03-29 13:00:00 16.4 13 Sur 18 Sur 0 -- -- 67
2020-03-29 12:00:00 17.2 6 Sudeste 13 Este 0 -- -- 60
2020-03-29 11:00:00 15.9 4 Este 8 Este 0 -- -- 61
2020-03-29 10:00:00 14.9 0 Calma 10 Norte 0 -- -- 64
2020-03-29 09:00:00 11.7 5 Norte 9 Noroeste 0 -- -- 77
2020-03-29 08:00:00 9.9 5 Norte 9 Norte 0 -- -- 84
2020-03-29 07:00:00 9.8 6 Norte 12 Noroeste 0 -- -- 84
2020-03-29 06:00:00 10.4 5 Norte 11 Norte 0 -- -- 83
2020-03-29 05:00:00 11 6 Norte 9 Norte 0 -- -- 79
2020-03-29 03:00:00 12.9 5 Sudoeste 22 Oeste 0 -- -- 70
2020-03-29 01:00:00 13.4 16 Oeste 25 Oeste 0 -- -- 66
2020-03-29 00:00:00 13.2 13 Oeste 19 Oeste 0 -- -- 70
2020-03-28 23:00:00 13.3 15 Oeste 22 Oeste 0 -- -- 69
2020-03-28 22:00:00 13.7 8 Oeste 13 Sudoeste 0 -- -- 69
2020-03-28 21:00:00 13.6 8 Sudoeste 18 Oeste 0 -- -- 70
2020-03-28 20:00:00 13.6 9 Oeste 18 Sudoeste 0 -- -- 70
2020-03-28 19:00:00 13.9 11 Sudoeste 22 Sudoeste 0 -- -- 64
2020-03-28 18:00:00 14.2 17 Sudoeste 22 Sudoeste 0 -- -- 72
2020-03-28 17:00:00 14 19 Sudoeste 23 Sudoeste 0 -- -- 73
2020-03-28 16:00:00 14.6 17 Sudoeste 21 Sur 0 -- -- 68
2020-03-28 15:00:00 15.7 11 Sur 17 Sur 0 -- -- 65
2020-03-28 14:00:00 16.1 10 Sur 16 Sudoeste 0 -- -- 60
2020-03-28 13:00:00 16.1 10 Sudeste 16 Sudeste 0 -- -- 55
2020-03-28 12:00:00 16.1 7 Este 11 Este 0 -- -- 54
2020-03-28 11:00:00 14.8 10 Este 17 Este 0 -- -- 55
2020-03-28 10:00:00 13.8 10 Nordeste 14 Norte 0 -- -- 56
2020-03-28 09:00:00 13.5 9 Norte 16 Norte 0 -- -- 61
2020-03-28 08:00:00 11.2 8 Norte 15 Norte 0 -- -- 73
2020-03-28 07:00:00 10.5 7 Norte 14 Norte 0 -- -- 72
2020-03-28 06:00:00 10.7 9 Norte 14 Norte 0 -- -- 72
2020-03-28 05:00:00 10.9 8 Norte 15 Noroeste 0 -- -- 70
2020-03-28 04:00:00 10.7 9 Norte 14 Norte 0 -- -- 71
2020-03-28 03:00:00 11.1 8 Noroeste 15 Norte 0 -- -- 67
2020-03-28 02:00:00 11 8 Norte 16 Norte 0 -- -- 67
2020-03-28 01:00:00 11.1 8 Norte 14 Norte 0 -- -- 66
2020-03-28 00:00:00 10.8 3 Noroeste 8 Noroeste 0 -- -- 67
2020-03-27 23:00:00 11 3 Noroeste 19 Oeste 0 -- -- 65
2020-03-27 22:00:00 10.9 6 Oeste 12 Sudoeste 0 -- -- 68
2020-03-27 21:00:00 11.1 6 Oeste 14 Oeste 0 -- -- 64
2020-03-27 20:00:00 10.7 8 Oeste 10 Oeste 0 -- -- 73
2020-03-27 19:00:00 10.7 13 Este 30 Este 0 -- -- 76
2020-03-27 18:00:00 12.5 7 Sur 13 Sur 0 -- -- 48
2020-03-27 17:00:00 12.9 9 Sur 18 Sudoeste 0 -- -- 47
2020-03-27 16:00:00 13 14 Sudoeste 21 Sudoeste 0 -- -- 46
2020-03-27 15:00:00 13.4 12 Sur 19 Sur 0 -- -- 43
2020-03-27 14:00:00 14.4 13 Sur 17 Sur 0 -- -- 39
2020-03-27 13:00:00 14.4 9 Sur 14 Sudeste 0 -- -- 37
2020-03-27 12:00:00 14.2 3 Nordeste 15 Noroeste 0 -- -- 36
2020-03-27 11:00:00 13.3 8 Norte 21 Noroeste 0 -- -- 38
2020-03-27 10:00:00 11.9 11 Norte 21 Noroeste 0 -- -- 46
2020-03-27 09:00:00 9.9 6 Norte 19 Norte 0 -- -- 54
2020-03-27 08:00:00 9.3 6 Norte 20 Norte 0 -- -- 57
2020-03-27 07:00:00 6.9 11 Noroeste 18 Norte 0 -- -- 67
2020-03-27 06:00:00 6.8 6 Noroeste 20 Noroeste 0 -- -- 68
2020-03-27 05:00:00 6.5 12 Norte 22 Norte 0 -- -- 72
2020-03-27 04:00:00 6.1 10 Norte 19 Norte 0 -- -- 76
2020-03-27 03:00:00 6 9 Norte 17 Norte 0 -- -- 77
2020-03-27 02:00:00 6.6 9 Norte 16 Noroeste 0 -- -- 74
2020-03-27 01:00:00 7 9 Norte 16 Noroeste 0 -- -- 75
2020-03-27 00:00:00 7.5 8 Norte 15 Norte 0 -- -- 76
2020-03-26 23:00:00 7.7 7 Norte 15 Nordeste 0 -- -- 73
2020-03-26 22:00:00 8.3 9 Norte 22 Nordeste 0 -- -- 68
2020-03-26 21:00:00 8.8 11 Nordeste 24 Nordeste 0 -- -- 68
2020-03-26 20:00:00 8.9 11 Nordeste 35 Este 0 -- -- 70
2020-03-26 19:00:00 9.1 22 Nordeste 49 Este 0 -- -- 73
2020-03-26 18:00:00 9.2 39 Este 50 Este 0 -- -- 81
2020-03-26 17:00:00 9.2 37 Este 59 Este 0 -- -- 78
2020-03-26 16:00:00 10.1 37 Este 57 Este 0 -- -- 76
2020-03-26 15:00:00 9.2 48 Este 58 Este 0 -- -- 82
2020-03-26 14:00:00 10 41 Este 54 Este 0 -- -- 77
2020-03-26 13:00:00 9.7 41 Este 52 Este 0 -- -- 80
2020-03-26 12:00:00 9.3 47 Este 56 Este 0 -- -- 88
2020-03-26 11:00:00 9.7 44 Este 55 Este 0 -- -- 84
2020-03-26 10:00:00 10.7 10 Este 19 Norte 0 -- -- 68
2020-03-26 09:00:00 8.7 13 Norte 23 Norte 0 -- -- 71
2020-03-26 08:00:00 7.9 7 Norte 17 Norte 0 -- -- 76
2020-03-26 07:00:00 6.3 9 Norte 18 Norte 0 -- -- 84
2020-03-26 06:00:00 6 9 Norte 14 Norte 0 -- -- 84
2020-03-26 05:00:00 7.5 0 Calma 14 Noroeste 0 -- -- 80
2020-03-26 04:00:00 8.2 6 Noroeste 17 Oeste 0 -- -- 77
2020-03-26 03:00:00 8.3 9 Oeste 16 Oeste 0 -- -- 76
2020-03-26 02:00:00 8.7 10 Noroeste 19 Oeste 0 -- -- 72
2020-03-26 01:00:00 8.7 8 Oeste 14 Oeste 0 -- -- 69
2020-03-26 00:00:00 8.9 8 Oeste 16 Oeste 0 -- -- 66
2020-03-25 23:00:00 9 8 Oeste 12 Oeste 0 -- -- 67
2020-03-25 22:00:00 9.5 7 Noroeste 10 Oeste 0 -- -- 67
2020-03-25 21:00:00 9.6 6 Oeste 14 Oeste 0 -- -- 69
2020-03-25 20:00:00 9.9 8 Oeste 15 Oeste 0 -- -- 70
2020-03-25 19:00:00 9.8 8 Oeste 13 Oeste 0 -- -- 70
2020-03-25 18:00:00 9.3 4 Sur 14 Noroeste 0.2 -- -- 79
2020-03-25 17:00:00 8.3 11 Oeste 27 Sudoeste 1.3 -- -- 87
2020-03-25 16:00:00 10.5 7 Sur 27 Este 0.4 -- -- 69
2020-03-25 15:00:00 11.5 19 Sudeste 30 Sudeste 0 -- -- 66
2020-03-25 14:00:00 12.7 13 Sudeste 23 Sudeste 0 -- -- 46
2020-03-25 13:00:00 12.6 17 Sudeste 32 Este 0 -- -- 51
2020-03-25 12:00:00 12.3 21 Este 27 Este 0 -- -- 51
2020-03-25 11:00:00 11.8 17 Este 24 Este 0 -- -- 49
2020-03-25 10:00:00 10.6 7 Nordeste 20 Nordeste 0 -- -- 52
2020-03-25 09:00:00 9.7 7 Norte 16 Norte 0 -- -- 53
2020-03-25 08:00:00 9.7 3 Este 46 Este 0 -- -- 54
2020-03-25 07:00:00 9.4 13 Nordeste 28 Nordeste 0 -- -- 50
2020-03-25 06:00:00 9.5 14 Nordeste 28 Nordeste 0 -- -- 53
2020-03-25 05:00:00 9.4 12 Nordeste 27 Nordeste 0 -- -- 57
2020-03-25 04:00:00 9.4 14 Nordeste 31 Nordeste 0 -- -- 60
2020-03-25 03:00:00 9.5 12 Nordeste 27 Nordeste 0 -- -- 63
2020-03-25 02:00:00 9.6 14 Nordeste 30 Nordeste 0 -- -- 63
2020-03-25 01:00:00 9.5 14 Nordeste 23 Nordeste 0 -- -- 65
2020-03-25 00:00:00 9.8 15 Nordeste 24 Nordeste 0 -- -- 68
2020-03-24 23:00:00 10 12 Nordeste 33 Este 0 -- -- 69
2020-03-24 22:00:00 10.4 20 Nordeste 46 Este 0 -- -- 70
2020-03-24 21:00:00 11.1 38 Este 49 Este 0 -- -- 73
2020-03-24 20:00:00 11.2 41 Este 53 Este 0 -- -- 75
2020-03-24 19:00:00 11.4 44 Este 56 Este 0 -- -- 77
2020-03-24 18:00:00 11.3 43 Este 51 Este 0 -- -- 78
2020-03-24 17:00:00 11.8 42 Este 51 Este 0 -- -- 80
2020-03-24 16:00:00 12.4 37 Este 50 Este 0 -- -- 85
2020-03-24 15:00:00 13 39 Este 46 Este 0 -- -- 77
2020-03-24 14:00:00 13.1 34 Este 46 Este 0 -- -- 74
2020-03-24 13:00:00 12.9 38 Este 47 Este 0 -- -- 74
2020-03-24 12:00:00 12.7 41 Este 49 Este 0 -- -- 72
2020-03-24 11:00:00 12.5 39 Este 48 Este 0 -- -- 76
2020-03-24 10:00:00 12.2 35 Este 47 Este 0 -- -- 77
2020-03-24 09:00:00 11.9 32 Este 40 Nordeste 0 -- -- 81
2020-03-24 08:00:00 11.5 25 Este 35 Nordeste 0 -- -- 84
2020-03-24 07:00:00 11 25 Nordeste 36 Este 0 -- -- 85
2020-03-24 06:00:00 11.2 26 Este 40 Este 0 -- -- 87
2020-03-24 05:00:00 11.3 27 Este 41 Este 0 -- -- 89
2020-03-24 04:00:00 11.9 30 Este 42 Este 0 -- -- 89
2020-03-24 03:00:00 11.9 24 Este 36 Este 0 -- -- 86
2020-03-24 02:00:00 11.8 25 Nordeste 36 Este 0 -- -- 86
2020-03-24 01:00:00 12.1 22 Nordeste 35 Este 0 -- -- 86
2020-03-24 00:00:00 12.2 27 Este 42 Este 0 -- -- 88
2020-03-23 23:00:00 12.4 30 Este 43 Este 0 -- -- 90
2020-03-23 22:00:00 12.9 37 Este 52 Este 0 -- -- 89
2020-03-23 21:00:00 12.7 42 Este 51 Este 0 -- -- 91
2020-03-23 20:00:00 13.2 33 Este 46 Este 0 -- -- 88
2020-03-23 19:00:00 13.9 37 Este 46 Este 0 -- -- 88
2020-03-23 18:00:00 14 39 Este 46 Este 0 -- -- 90
2020-03-23 17:00:00 14.1 37 Este 45 Este 0 -- -- 88
2020-03-23 16:00:00 14.2 37 Este 44 Este 0 -- -- 88
2020-03-23 15:00:00 14.5 36 Este 41 Este 0 -- -- 90
2020-03-23 14:00:00 14.7 29 Este 35 Este 0 -- -- 86
2020-03-23 13:00:00 14.4 27 Este 32 Este 0 -- -- 86
2020-03-23 12:00:00 13.7 22 Este 30 Este 0 -- -- 89
2020-03-23 11:00:00 12.5 20 Nordeste 28 Nordeste 1 -- -- 92
2020-03-23 10:00:00 12.3 11 Nordeste 30 Este 3.3 -- -- 94
2020-03-23 09:00:00 12.4 21 Este 31 Este 3.1 -- -- 94
2020-03-23 08:00:00 12.3 25 Este 31 Este 2.3 -- -- 94
2020-03-23 07:00:00 12 15 Nordeste 30 Este 5.4 -- -- 93
2020-03-23 06:00:00 12.1 19 Nordeste 35 Este 3.6 -- -- 93
2020-03-23 05:00:00 12.2 10 Nordeste 18 Norte 0.8 -- -- 92
2020-03-23 04:00:00 12.2 13 Nordeste 26 Nordeste 0.2 -- -- 92
2020-03-23 03:00:00 12.4 13 Nordeste 25 Este 0.2 -- -- 92
2020-03-23 02:00:00 12.8 20 Este 30 Este 0 -- -- 91
2020-03-23 01:00:00 13.3 25 Este 29 Este 0 -- -- 91
2020-03-23 00:00:00 13.4 23 Este 32 Este 0 -- -- 91
2020-03-22 23:00:00 13.4 23 Este 30 Este 0 -- -- 92
2020-03-22 22:00:00 13.6 25 Este 33 Este 0 -- -- 92
2020-03-22 21:00:00 13.3 30 Este 36 Este 0 -- -- 92
2020-03-22 20:00:00 13.3 30 Este 37 Este 0 -- -- 92
2020-03-22 19:00:00 13.4 29 Este 36 Este 0 -- -- 92
2020-03-22 18:00:00 13.6 30 Este 35 Este 0 -- -- 92
2020-03-22 17:00:00 14.1 26 Este 32 Este 0 -- -- 92
2020-03-22 16:00:00 14.4 27 Este 32 Este 0 -- -- 91
2020-03-22 15:00:00 14.8 26 Este 31 Este 0 -- -- 90
2020-03-22 14:00:00 14.8 24 Este 30 Este 0 -- -- 90
2020-03-22 13:00:00 14.7 23 Este 28 Este 0 -- -- 89
2020-03-22 12:00:00 14.7 24 Este 28 Este 0 -- -- 90
2020-03-22 11:00:00 14.2 22 Este 29 Este 0 -- -- 90
2020-03-22 10:00:00 14.3 18 Este 22 Este 0 -- -- 89
2020-03-22 09:00:00 13.3 8 Nordeste 15 Nordeste 0 -- -- 89
2020-03-22 08:00:00 11.4 9 Norte 13 Norte 0 -- -- 92
2020-03-22 07:00:00 11 8 Norte 13 Norte 0 -- -- 92
2020-03-22 06:00:00 11.2 6 Norte 13 Norte 0 -- -- 91
2020-03-22 05:00:00 11.5 8 Norte 13 Norte 0 -- -- 91
2020-03-22 04:00:00 11.7 9 Norte 14 Norte 0 -- -- 91
2020-03-22 03:00:00 12.1 8 Norte 13 Norte 0 -- -- 91
2020-03-22 02:00:00 12.5 7 Norte 13 Norte 0 -- -- 90
2020-03-22 01:00:00 12.8 5 Norte 9 Norte 0 -- -- 90
2020-03-22 00:00:00 13 3 Norte 13 Nordeste 0 -- -- 91
2020-03-21 23:00:00 13.2 7 Nordeste 17 Este 0 -- -- 92
2020-03-21 22:00:00 13.3 14 Este 20 Este 0 -- -- 92
2020-03-21 21:00:00 13.3 18 Este 21 Este 0 -- -- 92
2020-03-21 20:00:00 13.3 16 Este 21 Este 0 -- -- 92
2020-03-21 19:00:00 13.5 16 Este 19 Este 0 -- -- 92
2020-03-21 18:00:00 14 14 Este 20 Este 0 -- -- 91
2020-03-21 17:00:00 15.2 15 Este 18 Este 0 -- -- 86
2020-03-21 16:00:00 15.8 14 Este 21 Sudeste 0 -- -- 83
2020-03-21 15:00:00 15.7 21 Sudeste 28 Este 0 -- -- 79
2020-03-21 14:00:00 15.7 23 Sudeste 28 Este 0 -- -- 77
2020-03-21 13:00:00 15.2 21 Este 25 Este 0 -- -- 82
2020-03-21 12:00:00 14.8 18 Este 20 Este 0 -- -- 78
2020-03-21 11:00:00 14.6 8 Nordeste 18 Norte 0 -- -- 65
2020-03-21 10:00:00 13.2 6 Norte 22 Norte 0 -- -- 64
2020-03-21 09:00:00 11 12 Norte 24 Norte 0 -- -- 70
2020-03-21 08:00:00 9.7 11 Norte 20 Norte 0 -- -- 78
2020-03-21 07:00:00 9.1 11 Norte 18 Norte 0 -- -- 80
2020-03-21 06:00:00 9.2 12 Norte 22 Norte 0 -- -- 78
2020-03-21 05:00:00 9.1 12 Norte 21 Norte 0 -- -- 80
2020-03-21 04:00:00 9.4 10 Norte 18 Norte 0 -- -- 82
2020-03-21 03:00:00 10 10 Norte 15 Norte 0 -- -- 79
2020-03-21 02:00:00 10.4 8 Norte 13 Norte 0 -- -- 83
2020-03-21 01:00:00 10.8 6 Norte 13 Norte 0 -- -- 84
2020-03-21 00:00:00 11.3 7 Norte 12 Norte 0 -- -- 81
2020-03-20 23:00:00 11.7 7 Norte 11 Nordeste 0 -- -- 76
2020-03-20 22:00:00 12 2 Nordeste 12 Nordeste 0 -- -- 89
2020-03-20 21:00:00 12.4 10 Este 18 Este 0 -- -- 91
2020-03-20 20:00:00 12.9 15 Este 19 Este 0 -- -- 90
2020-03-20 19:00:00 13.4 13 Este 19 Este 0 -- -- 87
2020-03-20 18:00:00 14.4 17 Este 22 Este 0 -- -- 85
2020-03-20 17:00:00 14.8 17 Este 20 Sudeste 0 -- -- 86
2020-03-20 16:00:00 15.5 18 Sudeste 25 Este 0 -- -- 85
2020-03-20 15:00:00 15.2 24 Sudeste 30 Sudeste 0 -- -- 86
2020-03-20 14:00:00 14.9 15 Este 22 Este 0 -- -- 86
2020-03-20 13:00:00 14.4 17 Este 23 Nordeste 0 -- -- 84
2020-03-20 12:00:00 14.1 18 Este 25 Este 0 -- -- 85
2020-03-20 11:00:00 13.9 14 Este 19 Este 0 -- -- 83
2020-03-20 10:00:00 13.3 8 Nordeste 13 Norte 0 -- -- 80
2020-03-20 09:00:00 11.3 10 Norte 17 Norte 0 -- -- 78
2020-03-20 08:00:00 9.9 10 Norte 18 Norte 0 -- -- 84
2020-03-20 07:00:00 8.7 7 Norte 16 Nordeste 0 -- -- 88
2020-03-20 06:00:00 9.3 9 Norte 24 Norte 0 -- -- 88
2020-03-20 05:00:00 9.4 8 Norte 15 Noroeste 0 -- -- 88
2020-03-20 04:00:00 9.7 8 Norte 18 Noroeste 0 -- -- 88
2020-03-20 03:00:00 9.9 9 Norte 18 Norte 0 -- -- 90
2020-03-20 02:00:00 10.6 6 Norte 12 Norte 0 -- -- 90
2020-03-20 01:00:00 10.9 6 Norte 9 Norte 0 -- -- 90
2020-03-20 00:00:00 11.2 0 Calma 8 Nordeste 0 -- -- 90
2020-03-19 23:00:00 11.8 5 Nordeste 12 Este 0 -- -- 90
2020-03-19 22:00:00 12.2 9 Este 15 Este 0 -- -- 89
2020-03-19 21:00:00 12.3 8 Este 17 Este 0 -- -- 88
2020-03-19 20:00:00 12.8 13 Este 20 Este 0 -- -- 88
2020-03-19 19:00:00 12.9 10 Este 15 Este 0 -- -- 87
2020-03-19 18:00:00 13.8 11 Sudeste 17 Sudeste 0 -- -- 85
2020-03-19 17:00:00 14.5 9 Sudeste 14 Sudeste 0 -- -- 84
2020-03-19 16:00:00 14.7 9 Este 16 Este 0 -- -- 82
2020-03-19 15:00:00 15.5 12 Sudeste 15 Este 0 -- -- 78
2020-03-19 14:00:00 15.2 12 Este 18 Este 0 -- -- 81
2020-03-19 13:00:00 15.5 12 Sudeste 15 Sudeste 0 -- -- 81
2020-03-19 12:00:00 14.7 9 Sudeste 14 Sudeste 0 -- -- 84
2020-03-19 11:00:00 14.7 8 Sudeste 14 Este 0 -- -- 86
2020-03-19 10:00:00 13.4 8 Este 12 Este 0 -- -- 88
2020-03-19 09:00:00 11.9 5 Norte 12 Norte 0 -- -- 88
2020-03-19 08:00:00 10.1 8 Norte 13 Norte 0 -- -- 89
2020-03-19 07:00:00 8.9 8 Norte 13 Norte 0 -- -- 90
2020-03-19 06:00:00 9.5 8 Norte 12 Norte 0 -- -- 89
2020-03-19 05:00:00 9.7 6 Norte 9 Norte 0 -- -- 89
2020-03-19 04:00:00 10.1 4 Norte 9 Norte 0 -- -- 89
2020-03-19 03:00:00 10.4 7 Norte 9 Norte 0 -- -- 89
2020-03-19 02:00:00 10.6 3 Norte 6 Norte 0 -- -- 89
2020-03-19 01:00:00 11.5 0 Calma 6 Sudoeste 0 -- -- 93
2020-03-19 00:00:00 12.2 5 Sudoeste 6 Sudoeste 0 -- -- 93
2020-03-18 23:00:00 12.3 4 Sudoeste 7 Sudoeste 0 -- -- 92
2020-03-18 22:00:00 12.5 4 Sudoeste 6 Sur 0 -- -- 92
2020-03-18 21:00:00 12.9 0 Calma 0 Calma 0 -- -- 92
2020-03-18 20:00:00 13 0 Calma -- -- 0 -- -- 90
2020-03-18 19:00:00 13.8 0 Calma -- -- 0 -- -- 90
2020-03-18 18:00:00 15.1 0 Calma 13 Sudeste 0 -- -- 88
2020-03-18 17:00:00 15.6 8 Sudeste 13 Sudeste 0 -- -- 85
2020-03-18 16:00:00 16.6 6 Este 10 Sudeste 0 -- -- 82
2020-03-18 15:00:00 16.8 9 Este 12 Este 0 -- -- 82
2020-03-18 14:00:00 16.4 8 Sudeste 13 Sudeste 0 -- -- 83
2020-03-18 13:00:00 15.8 7 Sudeste 15 Sudeste 0 -- -- 82
2020-03-18 12:00:00 14.2 14 Este 20 Este 0 -- -- 83
2020-03-18 11:00:00 13.7 15 Este 20 Este 0 -- -- 84
2020-03-18 10:00:00 13.5 7 Nordeste 12 Nordeste 0 -- -- 83
2020-03-18 09:00:00 12.3 6 Norte 9 Norte 0 -- -- 85
2020-03-18 08:00:00 12 5 Norte 9 Norte 0 -- -- 85
2020-03-18 07:00:00 11.7 0 Calma 9 Norte 0 -- -- 85
2020-03-18 06:00:00 11.5 6 Norte 11 Norte 0 -- -- 87
2020-03-18 05:00:00 11.7 4 Nordeste 12 Norte 0 -- -- 88
2020-03-18 04:00:00 11.7 7 Nordeste 12 Nordeste 0 -- -- 89
2020-03-18 03:00:00 11.9 5 Norte 8 Norte 0 -- -- 90
2020-03-18 02:00:00 12.3 4 Norte 7 Nordeste 0 -- -- 90
2020-03-18 01:00:00 12.2 4 Nordeste 15 Este 0 -- -- 92
2020-03-18 00:00:00 12.9 12 Este 17 Este 0 -- -- 92
2020-03-17 23:00:00 13 14 Este 20 Este 0 -- -- 93
2020-03-17 22:00:00 13.4 10 Este 14 Nordeste 0 -- -- 92
2020-03-17 21:00:00 13.4 8 Nordeste 18 Este 0 -- -- 92
2020-03-17 20:00:00 13.7 12 Este 18 Nordeste 0 -- -- 91
2020-03-17 19:00:00 13.8 10 Nordeste 23 Este 0 -- -- 91
2020-03-17 18:00:00 14.2 15 Nordeste 31 Este 0 -- -- 89
2020-03-17 17:00:00 14.3 28 Este 36 Este 0 -- -- 89
2020-03-17 16:00:00 14.3 30 Este 37 Este 0 -- -- 90
2020-03-17 15:00:00 14.6 35 Este 41 Este 0 -- -- 88
2020-03-17 14:00:00 14.8 28 Este 33 Este 0 -- -- 88
2020-03-17 13:00:00 14.8 25 Este 35 Este 0 -- -- 88
2020-03-17 12:00:00 14 26 Este 31 Este 0 -- -- 90
2020-03-17 11:00:00 14.3 24 Este 38 Este 0 -- -- 89
2020-03-17 10:00:00 14.7 22 Este 33 Nordeste 0 -- -- 84
2020-03-17 09:00:00 14.4 24 Nordeste 38 Este 0 -- -- 85
2020-03-17 08:00:00 14.6 24 Este 37 Este 0 -- -- 85
2020-03-17 07:00:00 14.2 26 Este 41 Este 0 -- -- 88
2020-03-17 06:00:00 14.1 30 Este 44 Este 0 -- -- 88
2020-03-17 05:00:00 13.8 25 Este 42 Este 0.1 -- -- 89
2020-03-17 04:00:00 13.7 23 Nordeste 45 Este 0 -- -- 88
2020-03-17 03:00:00 13.6 37 Este 49 Este 0 -- -- 88
2020-03-17 02:00:00 13.9 40 Este 54 Este 0 -- -- 85
2020-03-17 01:00:00 13.9 33 Este 46 Este 0 -- -- 84
2020-03-17 00:00:00 13.8 38 Este 54 Este 0 -- -- 85
2020-03-16 23:00:00 13.6 43 Este 58 Este 0 -- -- 89
2020-03-16 22:00:00 13.5 45 Este 61 Este 0 -- -- 89
2020-03-16 21:00:00 13.4 43 Este 63 Este 0 -- -- 89
2020-03-16 20:00:00 13.1 36 Este 59 Este 0 -- -- 91
2020-03-16 19:00:00 13 46 Este 57 Este 0 -- -- 93
2020-03-16 18:00:00 13.1 44 Este 57 Este 0.1 -- -- 93
2020-03-16 17:00:00 13 43 Este 55 Este 0.4 -- -- 94
2020-03-16 16:00:00 12.8 45 Este 54 Este 0.3 -- -- 94
2020-03-16 15:00:00 12.9 44 Este 57 Este 1 -- -- 94
2020-03-16 14:00:00 13 49 Este 59 Este 0.4 -- -- 94
2020-03-16 13:00:00 13.2 49 Este 62 Este 1.1 -- -- 94
2020-03-16 12:00:00 13.2 50 Este 61 Este 0 -- -- 93
2020-03-16 11:00:00 13.5 44 Este 52 Este 0 -- -- 92
2020-03-16 10:00:00 13.5 42 Este 51 Este 0 -- -- 91
2020-03-16 09:00:00 13.1 40 Este 49 Este 0 -- -- 91
2020-03-16 08:00:00 12.9 39 Este 47 Este 0 -- -- 91
2020-03-16 07:00:00 12.7 34 Este 41 Este 0 -- -- 91
2020-03-16 06:00:00 12.9 31 Este 36 Este 0 -- -- 91
2020-03-16 05:00:00 13.2 27 Este 30 Este 0 -- -- 87
2020-03-16 04:00:00 13.2 21 Este 25 Este 0 -- -- 89
2020-03-16 03:00:00 13.4 21 Este 24 Este 0 -- -- 91
2020-03-16 02:00:00 13.7 18 Sudeste 21 Sudeste 0 -- -- 90
2020-03-16 01:00:00 13.6 17 Sudeste 20 Sudeste 0 -- -- 91
2020-03-16 00:00:00 13.7 15 Sudeste 20 Sudeste 0 -- -- 91
2020-03-15 23:00:00 13.6 17 Sudeste 19 Sudeste 0 -- -- 92
2020-03-15 22:00:00 13.6 14 Sudeste 16 Sudeste 0 -- -- 92
2020-03-15 21:00:00 13.4 13 Sudeste 17 Sudeste 0 -- -- 92
2020-03-15 20:00:00 13.6 12 Sudeste 15 Sudeste 0 -- -- 92
2020-03-15 19:00:00 13.4 10 Sur 17 Sur 0 -- -- 90
2020-03-15 18:00:00 13.8 12 Sur 22 Sur 0 -- -- 90
2020-03-15 17:00:00 13.8 19 Sur 26 Sudoeste 0 -- -- 90
2020-03-15 16:00:00 14.3 22 Sudoeste 28 Sudoeste 0 -- -- 89
2020-03-15 15:00:00 15.1 20 Sudoeste 28 Sur 0 -- -- 86
2020-03-15 14:00:00 14.6 24 Sur 32 Sur 0 -- -- 89
2020-03-15 13:00:00 15.1 16 Sur 23 Sur 0 -- -- 86
2020-03-15 12:00:00 15.2 14 Sur 20 Sur 0 -- -- 84
2020-03-15 11:00:00 15.2 9 Sur 13 Sur 0 -- -- 84
2020-03-15 10:00:00 13.7 6 Este 10 Este 0 -- -- 89
2020-03-15 09:00:00 12.9 0 Calma 7 Norte 0 -- -- 89
2020-03-15 08:00:00 11.8 6 Norte 10 Norte 0 -- -- 89
2020-03-15 07:00:00 10.8 7 Norte 10 Norte 0 -- -- 91
2020-03-15 06:00:00 11 7 Norte 12 Norte 0 -- -- 92
2020-03-15 05:00:00 11 7 Norte 11 Norte 0 -- -- 91
2020-03-15 04:00:00 11.3 6 Norte 10 Norte 0 -- -- 92
2020-03-15 03:00:00 12.3 0 Calma 6 Norte 0 -- -- 92
2020-03-15 02:00:00 12.1 3 Nordeste 6 Nordeste 0 -- -- 92
2020-03-15 01:00:00 12.3 3 Nordeste 5 Nordeste 0 -- -- 92
2020-03-15 00:00:00 12.6 3 Nordeste 8 Este 0 -- -- 92
2020-03-14 23:00:00 13.2 0 Calma 11 Este 0 -- -- 92
2020-03-14 22:00:00 13.4 0 Calma 10 Sudoeste 0 -- -- 85
2020-03-14 21:00:00 13.8 5 Oeste 15 Oeste 0 -- -- 82
2020-03-14 20:00:00 13.9 8 Sudoeste 15 Sudoeste 0 -- -- 85
2020-03-14 19:00:00 13.7 13 Sudoeste 17 Sudoeste 0 -- -- 88
2020-03-14 18:00:00 14.6 8 Sur 11 Sur 0 -- -- 86
2020-03-14 17:00:00 14.9 8 Sur 13 Sur 0 -- -- 85
2020-03-14 16:00:00 17.1 8 Sudeste 13 Sudeste 0 -- -- 82
2020-03-14 15:00:00 17.8 10 Sudeste 13 Sudeste 0 -- -- 80
2020-03-14 14:00:00 16.3 10 Sudeste 15 Este 0 -- -- 86
2020-03-14 13:00:00 15.3 14 Este 18 Este 0 -- -- 89
2020-03-14 12:00:00 15 17 Este 20 Este 0 -- -- 89
2020-03-14 11:00:00 14.9 15 Este 17 Este 0 -- -- 90
2020-03-14 10:00:00 14 15 Este 19 Este 0 -- -- 92
2020-03-14 09:00:00 14.1 7 Nordeste 14 Nordeste 0 -- -- 85
2020-03-14 08:00:00 13.3 0 Calma 7 Este 0 -- -- 89
2020-03-14 07:00:00 13.2 0 Calma 8 Nordeste 0 -- -- 89
2020-03-14 06:00:00 13.2 0 Calma 5 Oeste 0 -- -- 89
2020-03-14 05:00:00 13.4 3 Oeste 12 Oeste 0 -- -- 88
2020-03-14 04:00:00 12.8 0 Calma -- -- 0 -- -- 92
2020-03-14 03:00:00 12.7 0 Calma -- -- 0 -- -- 92
2020-03-14 02:00:00 12.9 0 Calma -- -- 0 -- -- 92
2020-03-14 01:00:00 12.9 0 Calma 7 Sudoeste 0 -- -- 92
2020-03-14 00:00:00 13.3 4 Sudeste 8 Este 0 -- -- 92
2020-03-13 23:00:00 13.5 7 Este 9 Este 0 -- -- 92
2020-03-13 22:00:00 13.4 7 Este 11 Este 0 -- -- 91
2020-03-13 21:00:00 13.8 8 Nordeste 12 Oeste 0 -- -- 90
2020-03-13 20:00:00 14.1 7 Sudoeste 17 Sudoeste 0 -- -- 89
2020-03-13 19:00:00 14.1 13 Sudoeste 21 Sudoeste 0 -- -- 90
2020-03-13 18:00:00 14.7 18 Sudoeste 27 Sudoeste 0 -- -- 89
2020-03-13 17:00:00 15.7 19 Sudoeste 25 Sur 0 -- -- 85
2020-03-13 16:00:00 15.7 23 Sudoeste 31 Sur 0 -- -- 86
2020-03-13 15:00:00 15.9 22 Sudoeste 30 Sudoeste 0 -- -- 85
2020-03-13 14:00:00 15.2 23 Sudoeste 32 Sudoeste 0 -- -- 87
2020-03-13 13:00:00 14.8 22 Sur 28 Sur 0 -- -- 88
2020-03-13 12:00:00 15.2 19 Sudoeste 24 Sudoeste 0 -- -- 80
2020-03-13 11:00:00 14.6 14 Sudoeste 19 Sudoeste 0 -- -- 85
2020-03-13 10:00:00 13.9 8 Sur 14 Sur 0 -- -- 90
2020-03-13 09:00:00 12.2 3 Sudoeste 11 Sur 0 -- -- 94
2020-03-13 08:00:00 11.8 2 Sur 8 Sur 0 -- -- 94
2020-03-13 07:00:00 11.5 4 Sudoeste 9 Sur 0 -- -- 94
2020-03-13 06:00:00 11.3 5 Sudoeste 8 Sudoeste 0 -- -- 94
2020-03-13 05:00:00 11.5 4 Sur 7 Sudeste 0 -- -- 94
2020-03-13 04:00:00 11.7 0 Calma 15 Este 0 -- -- 94
2020-03-13 03:00:00 12.1 11 Este 15 Este 0 -- -- 94
2020-03-13 02:00:00 12 5 Nordeste 13 Este 0 -- -- 94
2020-03-13 01:00:00 11.9 8 Este 12 Este 0 -- -- 94
2020-03-13 00:00:00 11.8 8 Este 14 Este 0 -- -- 94
2020-03-12 23:00:00 11.9 9 Nordeste 18 Este 0 -- -- 94
2020-03-12 22:00:00 11.9 12 Este 20 Este 0 -- -- 94
2020-03-12 21:00:00 12.6 9 Este 15 Este 0 -- -- 94
2020-03-12 20:00:00 12.5 5 Sudeste 11 Sudeste 0 -- -- 94
2020-03-12 19:00:00 12.5 9 Sur 16 Sur 0 -- -- 94
2020-03-12 18:00:00 12.9 9 Sur 20 Sudoeste 0 -- -- 94
2020-03-12 17:00:00 13 14 Sur 22 Sudoeste 0 -- -- 94
2020-03-12 16:00:00 13.5 19 Sudoeste 24 Sudoeste 0 -- -- 94
2020-03-12 15:00:00 13.1 19 Sudoeste 24 Sudoeste 0 -- -- 94
2020-03-12 14:00:00 13.4 17 Sur 21 Sudoeste 0 -- -- 93
2020-03-12 13:00:00 14.3 14 Sudoeste 24 Sudoeste 0 -- -- 92
2020-03-12 12:00:00 14.1 21 Sudoeste 27 Sudoeste 0 -- -- 92
2020-03-12 11:00:00 15.3 14 Sudoeste 20 Sudoeste 0 -- -- 87
2020-03-12 10:00:00 15.3 3 Este 8 Este 0 -- -- 79
2020-03-12 09:00:00 13.5 5 Este 7 Este 0 -- -- 83
2020-03-12 08:00:00 11.9 5 Oeste 9 Oeste 0 -- -- 87
2020-03-12 07:00:00 11.2 3 Noroeste 7 Norte 0 -- -- 89
2020-03-12 06:00:00 11.1 5 Norte 7 Norte 0 -- -- 90
2020-03-12 05:00:00 12.1 0 Calma 4 Oeste 0 -- -- 91
2020-03-12 04:00:00 12.3 4 Noroeste 12 Norte 0 -- -- 86
2020-03-12 03:00:00 12.1 7 Norte 10 Norte 0 -- -- 89
2020-03-12 02:00:00 11.8 0 Calma -- -- 0 -- -- 93
2020-03-12 01:00:00 12.7 0 Calma -- -- 0 -- -- 93
2020-03-12 00:00:00 12.9 3 Sudoeste 8 Sudoeste 0 -- -- 93
2020-03-11 23:00:00 12.9 0 Calma 11 Sudoeste 0 -- -- 93
2020-03-11 22:00:00 13.4 8 Sudoeste 11 Sudoeste 0 -- -- 92
2020-03-11 21:00:00 13.2 10 Sudoeste 13 Sudoeste 0 -- -- 93
2020-03-11 20:00:00 13.3 7 Sur 10 Sur 0 -- -- 93
2020-03-11 19:00:00 13.8 4 Sur 9 Sur 0 -- -- 92
2020-03-11 18:00:00 14.8 6 Sur 14 Sudeste 0 -- -- 90
2020-03-11 17:00:00 15.5 8 Sur 12 Sur 0 -- -- 89
2020-03-11 16:00:00 15.5 9 Sur 14 Sur 0 -- -- 89
2020-03-11 15:00:00 15.6 9 Sur 14 Sur 0 -- -- 88
2020-03-11 14:00:00 15.9 9 Sur 14 Sudeste 0 -- -- 87
2020-03-11 13:00:00 16 9 Sudeste 12 Sudeste 0 -- -- 86
2020-03-11 12:00:00 15.8 8 Sudeste 14 Este 0 -- -- 86
2020-03-11 11:00:00 -- 10 Este 16 Este 0 -- -- --
2020-03-11 10:00:00 14.2 6 Este 13 Norte 0 -- -- 87
2020-03-11 09:00:00 12.1 8 Norte 15 Norte 0 -- -- 88
2020-03-11 08:00:00 11 8 Norte 17 Norte 0 -- -- 88
2020-03-11 07:00:00 10.3 7 Norte 15 Norte 0 -- -- 88
2020-03-11 06:00:00 9.8 9 Norte 17 Norte 0 -- -- 88
2020-03-11 05:00:00 10.1 8 Norte 18 Nordeste 0 -- -- 87
2020-03-11 04:00:00 10.9 6 Norte 17 Oeste 0 -- -- 89
2020-03-11 03:00:00 12.1 9 Oeste 23 Oeste 0 -- -- 89
2020-03-11 02:00:00 12.2 2 Sur 6 Sur 0 -- -- 88
2020-03-11 01:00:00 12.1 3 Nordeste 14 Oeste 0 -- -- 87
2020-03-11 00:00:00 12.6 5 Oeste 18 Oeste 0 -- -- 86
2020-03-10 23:00:00 12.8 9 Oeste 19 Oeste 0 -- -- 86
2020-03-10 22:00:00 13.2 10 Oeste 19 Oeste 0 -- -- 86
2020-03-10 21:00:00 13.1 8 Oeste 19 Oeste 0 -- -- 88
2020-03-10 20:00:00 13.3 14 Oeste 27 Oeste 0 -- -- 87
2020-03-10 19:00:00 13.5 16 Oeste 31 Oeste 0 -- -- 83
2020-03-10 18:00:00 13.9 16 Oeste 33 Oeste 0 -- -- 78
2020-03-10 17:00:00 14.1 17 Oeste 34 Oeste 0 -- -- 72
2020-03-10 16:00:00 14.6 16 Oeste 36 Oeste 0 -- -- 73
2020-03-10 15:00:00 15.7 15 Sudoeste 29 Sudoeste 0 -- -- 60
2020-03-10 14:00:00 14.5 19 Sudoeste 30 Sudoeste 0 -- -- 64
2020-03-10 13:00:00 13.3 24 Sudoeste 32 Sudoeste 0 -- -- 76
2020-03-10 12:00:00 13.4 23 Sudoeste 29 Sudoeste 0 -- -- 67
2020-03-10 11:00:00 14.8 4 Oeste 19 Oeste 0 -- -- 56
2020-03-10 10:00:00 13.2 7 Noroeste 21 Noroeste 0 -- -- 63
2020-03-10 09:00:00 11.6 12 Noroeste 24 Noroeste 0 -- -- 68
2020-03-10 08:00:00 10.6 9 Noroeste 23 Norte 0 -- -- 68
2020-03-10 07:00:00 10.2 12 Norte 22 Norte 0 -- -- 68
2020-03-10 06:00:00 10.6 5 Norte 18 Noroeste 0 -- -- 65
2020-03-10 05:00:00 11.3 9 Noroeste 19 Noroeste 0 -- -- 64
2020-03-10 04:00:00 11.6 3 Noroeste 13 Noroeste 0 -- -- 82
2020-03-10 03:00:00 12.1 9 Oeste 16 Noroeste 0 -- -- 85
2020-03-10 02:00:00 12.4 5 Oeste 14 Sudoeste 0 -- -- 85
2020-03-10 01:00:00 12.6 8 Oeste 14 Oeste 0 -- -- 86
2020-03-10 00:00:00 12.8 9 Sudoeste 13 Sudoeste 0 -- -- 86